Total_Precipitation_Accumulation
1.64 1.95 2.29 2.62 3.17 3.22 3.06 3.16 3.37 3.55 3.65 3.94 4.04 4.26 4.60 4.82 4.97 5.00 4.88 4.83 4.69 4.76 4.78 4.60 4.38 4.25 4.24 4.16 4.12 3.94 3.72 3.47 3.32 3.21 2.84 2.35 2.07 2.06 2.03 2.02 2.00 1.97 1.99
2.00 2.13 2.31 2.72 3.21 3.39 3.41 3.45 3.65 3.96 4.18 4.42 4.87 5.17 5.43 5.68 5.88 5.89 5.46 5.25 5.13 4.99 4.90 4.92 4.84 4.63 4.44 4.25 4.07 3.99 3.83 3.50 3.37 3.31 3.17 2.69 2.28 1.91 1.68 1.70 1.66 1.67 1.83
2.19 2.27 2.37 2.73 3.05 3.24 3.38 3.51 3.74 4.19 4.74 5.13 5.59 6.00 6.16 6.20 6.07 5.79 5.65 5.50 5.36 5.22 5.07 4.91 4.69 4.52 4.39 4.23 4.02 3.84 3.74 3.52 3.39 3.31 3.35 3.03 2.59 2.09 1.74 1.56 1.48 1.44 1.55
2.20 2.35 2.51 2.74 3.01 3.23 3.38 3.70 4.17 4.80 5.37 5.85 6.38 6.86 6.98 6.82 6.52 6.08 5.65 5.40 5.16 4.85 4.61 4.48 4.36 4.16 3.86 3.63 3.47 3.39 3.25 3.13 2.99 2.99 2.93 2.76 2.57 2.52 2.27 1.96 1.78 1.69 1.64
1.88 2.13 2.29 2.48 2.85 3.04 3.27 3.64 4.18 4.88 5.60 6.43 7.12 7.53 7.45 7.11 6.70 6.02 5.45 4.99 4.58 4.23 3.98 3.84 3.66 3.43 3.06 2.70 2.57 2.65 2.74 2.75 2.67 2.65 2.68 2.66 2.51 2.44 2.36 2.19 2.01 1.89 1.77
1.61 1.69 1.78 2.04 2.37 2.68 2.99 3.42 4.03 4.75 5.41 6.06 6.60 6.83 6.73 6.52 6.01 5.32 4.69 4.30 3.97 3.62 3.27 2.96 2.67 2.44 2.27 2.06 2.01 2.05 2.14 2.32 2.43 2.54 2.57 2.56 2.47 2.39 2.38 2.26 2.17 2.09 1.95
1.52 1.49 1.51 1.74 2.07 2.28 2.68 3.11 3.55 4.19 4.63 4.96 5.38 5.57 5.58 5.35 5.06 4.59 4.13 3.69 3.21 2.86 2.57 2.29 2.15 2.01 1.90 1.83 1.79 1.76 1.73 1.83 1.98 2.10 2.23 2.32 2.32 2.32 2.38 2.44 2.41 2.22 2.06
1.42 1.46 1.54 1.70 1.95 2.10 2.29 2.52 2.83 3.19 3.38 3.43 3.67 3.91 3.93 3.88 3.76 3.47 3.16 2.87 2.52 2.15 1.89 1.68 1.56 1.54 1.56 1.49 1.52 1.54 1.54 1.55 1.61 1.68 1.86 2.00 2.05 2.09 2.11 2.14 2.22 2.25 2.13
1.31 1.43 1.49 1.49 1.55 1.64 1.73 1.82 2.00 2.17 2.25 2.34 2.40 2.55 2.59 2.57 2.48 2.32 2.09 1.90 1.75 1.53 1.37 1.26 1.24 1.21 1.21 1.23 1.22 1.22 1.27 1.35 1.40 1.41 1.48 1.58 1.64 1.71 1.79 1.87 1.93 2.05 2.08
1.22 1.31 1.38 1.35 1.35 1.35 1.42 1.49 1.56 1.63 1.68 1.74 1.69 1.70 1.75 1.75 1.69 1.56 1.49 1.39 1.27 1.17 1.12 1.07 1.01 0.94 0.91 0.90 0.91 0.94 0.99 1.06 1.15 1.18 1.21 1.28 1.31 1.40 1.50 1.64 1.73 1.75 1.81
1.12 1.20 1.20 1.18 1.16 1.16 1.19 1.26 1.30 1.29 1.30 1.29 1.25 1.24 1.21 1.22 1.25 1.24 1.20 1.11 1.00 0.87 0.81 0.76 0.72 0.69 0.71 0.74 0.78 0.81 0.85 0.89 0.96 1.04 1.08 1.12 1.11 1.17 1.24 1.27 1.33 1.46 1.55
1.22 1.23 1.15 1.09 1.03 1.03 1.04 1.07 1.08 1.08 1.13 1.06 0.97 0.97 0.94 0.92 0.95 0.97 0.90 0.85 0.81 0.71 0.62 0.56 0.55 0.55 0.57 0.59 0.62 0.66 0.70 0.79 0.84 0.88 0.92 0.94 0.94 0.98 1.01 1.05 1.07 1.16 1.27
1.60 1.45 1.26 1.16 1.12 1.07 0.99 0.92 0.94 0.93 0.94 0.92 0.86 0.84 0.82 0.82 0.83 0.85 0.80 0.73 0.70 0.66 0.59 0.52 0.52 0.50 0.48 0.49 0.50 0.52 0.54 0.63 0.71 0.75 0.80 0.82 0.82 0.81 0.78 0.82 0.90 0.97 1.05
1.78 1.57 1.35 1.26 1.21 1.12 1.02 0.96 0.96 0.90 0.84 0.83 0.77 0.75 0.73 0.73 0.72 0.74 0.75 0.68 0.58 0.53 0.52 0.51 0.49 0.47 0.44 0.44 0.43 0.40 0.44 0.49 0.54 0.57 0.62 0.66 0.70 0.71 0.73 0.72 0.84 0.92 1.05
1.70 1.60 1.51 1.41 1.34 1.24 1.17 1.06 0.98 0.89 0.85 0.81 0.77 0.73 0.68 0.64 0.61 0.61 0.62 0.59 0.55 0.48 0.45 0.44 0.44 0.40 0.35 0.30 0.29 0.33 0.39 0.46 0.47 0.50 0.49 0.49 0.54 0.63 0.65 0.65 0.73 0.84 0.99
1.80 1.72 1.64 1.54 1.49 1.37 1.31 1.22 1.11 1.05 0.95 0.88 0.86 0.79 0.72 0.63 0.61 0.58 0.57 0.55 0.50 0.46 0.44 0.43 0.41 0.36 0.27 0.26 0.25 0.27 0.36 0.46 0.49 0.48 0.46 0.42 0.39 0.44 0.51 0.53 0.60 0.73 0.84
1.89 1.78 1.78 1.75 1.68 1.62 1.52 1.36 1.21 1.13 0.95 0.82 0.77 0.74 0.69 0.64 0.61 0.53 0.50 0.53 0.54 0.52 0.47 0.44 0.43 0.44 0.37 0.24 0.20 0.22 0.33 0.47 0.47 0.47 0.50 0.45 0.41 0.46 0.52 0.52 0.50 0.55 0.59
2.05 1.94 1.84 1.80 1.71 1.62 1.50 1.31 1.13 0.96 0.79 0.70 0.66 0.62 0.58 0.60 0.61 0.55 0.53 0.55 0.56 0.53 0.50 0.48 0.48 0.52 0.41 0.26 0.18 0.21 0.32 0.42 0.39 0.41 0.48 0.54 0.54 0.46 0.46 0.50 0.54 0.59 0.61
2.05 1.94 1.81 1.73 1.61 1.42 1.26 1.14 0.94 0.82 0.74 0.69 0.66 0.57 0.51 0.57 0.60 0.57 0.57 0.61 0.58 0.57 0.55 0.53 0.56 0.58 0.46 0.31 0.24 0.26 0.35 0.41 0.42 0.43 0.41 0.40 0.42 0.40 0.45 0.53 0.67 0.70 0.75
1.81 1.76 1.58 1.45 1.38 1.20 1.03 0.98 0.86 0.77 0.73 0.66 0.62 0.56 0.54 0.57 0.59 0.63 0.63 0.57 0.57 0.54 0.48 0.51 0.59 0.58 0.50 0.34 0.27 0.29 0.32 0.40 0.50 0.54 0.51 0.42 0.37 0.39 0.42 0.55 0.71 0.81 0.81
1.50 1.49 1.39 1.31 1.16 0.98 0.96 1.00 0.96 0.82 0.65 0.55 0.55 0.58 0.59 0.55 0.53 0.56 0.59 0.56 0.50 0.52 0.51 0.51 0.53 0.55 0.43 0.31 0.27 0.31 0.36 0.41 0.46 0.51 0.56 0.51 0.42 0.40 0.42 0.48 0.63 0.74 0.75
1.19 1.25 1.28 1.20 1.08 0.98 0.96 0.96 0.92 0.73 0.62 0.61 0.62 0.59 0.55 0.45 0.43 0.52 0.56 0.52 0.50 0.53 0.55 0.55 0.58 0.53 0.39 0.28 0.24 0.27 0.32 0.33 0.41 0.53 0.52 0.51 0.47 0.43 0.45 0.48 0.59 0.69 0.82
0.98 1.02 1.06 1.03 1.00 0.93 0.93 0.92 0.80 0.63 0.60 0.65 0.61 0.55 0.47 0.42 0.42 0.48 0.50 0.48 0.47 0.44 0.43 0.46 0.50 0.45 0.36 0.31 0.25 0.26 0.27 0.28 0.35 0.46 0.48 0.46 0.46 0.48 0.59 0.61 0.65 0.77 0.98
0.81 0.86 0.94 0.93 0.90 0.82 0.80 0.81 0.69 0.64 0.67 0.67 0.58 0.50 0.44 0.38 0.36 0.38 0.36 0.36 0.37 0.37 0.37 0.36 0.38 0.36 0.31 0.25 0.22 0.23 0.25 0.26 0.30 0.38 0.48 0.57 0.62 0.69 0.82 0.91 0.97 0.98 1.00
0.72 0.77 0.87 0.86 0.76 0.68 0.64 0.60 0.63 0.67 0.70 0.64 0.52 0.45 0.38 0.32 0.31 0.27 0.22 0.21 0.22 0.22 0.25 0.23 0.21 0.22 0.22 0.16 0.17 0.19 0.23 0.25 0.28 0.33 0.48 0.69 0.81 0.89 0.93 0.96 1.01 0.99 0.92
0.65 0.71 0.71 0.67 0.60 0.55 0.54 0.49 0.52 0.58 0.55 0.49 0.42 0.35 0.29 0.27 0.23 0.22 0.20 0.14 0.13 0.14 0.16 0.17 0.15 0.13 0.13 0.13 0.12 0.14 0.17 0.20 0.25 0.32 0.54 0.72 0.80 0.86 0.89 0.90 0.88 0.83 0.79